Location: ??????????
(54.8537°N, 38.8755°E)
Time: 22:42:04
(UTC+00:00)

Transit 2A Rocket - Pass Details

Date: 17 September 2024
Orbit: 582 x 908 km, 66.7° (Epoch: 09 October)

Event Time Altitude Azimuth Distance (km) Brightness Sun altitude
Exits shadow 19:48:58 16° 63° (ENE) 2,226 7.4 -30.4°
Drops below altitude 10° 19:50:14 10° 55° (NE) 2,602 7.8 -30.5°
Sets 19:53:03 0° 45° (NE) 3,536 8.7 -30.6°
